This demonstration page uses our WeatherBlox Daily Observations layout. Learn more.

Hourly Observations for August 4, 2017

Temp ( °F °C ) Dew Point ( °F °C ) Humidity (%) Winds ( mph kmh ) Pressure ( in mb ) Visibility ( mi km ) Precip ( " mm )
12:15 am 00:15 Clear 54 12.3 52 11 92 92 Calm 30.21 1023 10 16.09344 0 0
12:35 am 00:35 Clear 54 12.3 52 10.9 91 91 Calm 30.21 1023 10 16.09344 0 0
12:55 am 00:55 Clear 55 12.5 52 10.9 90 90 Calm 30.21 1023 10 16.09344 0 0
1:15 am 01:15 Clear 54 12.2 51 10.6 90 90 Calm 30.21 1023 10 16.09344 0 0
1:35 am 01:35 Clear 53 11.6 51 10.3 92 92 Calm 30.21 1023 10 16.09344 0 0
1:55 am 01:55 Clear 53 11.9 51 10.6 92 92 Calm 30.21 1023 10 16.09344 0 0
2:15 am 02:15 Clear 52 11.2 50 10.1 93 93 Calm 30.24 1024 10 16.09344 0 0
2:35 am 02:35 Clear 51 10.6 50 9.8 95 95 Calm 30.24 1024 10 16.09344 0 0
2:55 am 02:55 Clear 51 10.5 49 9.6 94 94 Calm 30.24 1024 10 16.09344 0 0
3:15 am 03:15 Clear 50 10.2 49 9.5 95 95 Calm 30.24 1024 10 16.09344 0 0
3:35 am 03:35 Clear 50 10.1 49 9.5 96 96 Calm 30.24 1024 10 16.09344 0 0
3:55 am 03:55 Clear 50 10 49 9.4 96 96 Calm 30.24 1024 10 16.09344 0 0
4:15 am 04:15 Clear 50 9.8 49 9.2 96 96 Calm 30.24 1024 10 16.09344 0 0
4:35 am 04:35 Clear 49 9.7 48 9.1 96 96 Calm 30.24 1024 10 16.09344 0 0
4:55 am 04:55 Clear 49 9.3 48 8.7 96 96 Calm 30.21 1023 10 16.09344 0 0
5:15 am 05:15 Clear 48 9.1 47 8.4 95 95 Calm 30.21 1023 10 16.09344 0 0
5:35 am 05:35 Clear 49 9.3 47 8.6 95 95 Calm 30.21 1023 10 16.09344 0 0
5:55 am 05:55 Clear 48 8.9 47 8.2 95 95 Calm 30.21 1023 10 16.09344 0 0
6:15 am 06:15 Clear 47 8.6 46 8 96 96 Calm 30.21 1023 10 16.09344 0 0
6:35 am 06:35 Clear 48 8.7 47 8.1 96 96 Calm 30.21 1023 10 16.09344 0 0
6:55 am 06:55 Sunny 47 8.4 46 7.7 95 95 Calm 30.21 1023 7 11.265408 0 0
7:15 am 07:15 Sunny 48 9 47 8.4 96 96 Calm 30.21 1023 10 16.09344 0 0
7:35 am 07:35 Sunny 50 10 49 9.5 97 97 Calm 30.21 1023 10 16.09344 0 0
7:55 am 07:55 Sunny 53 11.6 52 11 96 96 Calm 30.18 1022 10 16.09344 0 0
8:15 am 08:15 Sunny 55 12.7 53 11.5 92 92 Calm 30.18 1022 10 16.09344 0 0
8:35 am 08:35 Sunny 57 13.7 53 11.6 87 87 SSE 3 6 30.18 1022 10 16.09344 0 0
8:55 am 08:55 Sunny 58 14.4 53 11.6 83 83 S 6 9 30.15 1021 10 16.09344 0 0
9:15 am 09:15 Sunny 59 14.9 52 11.3 79 79 SSE 6 9 30.15 1021 10 16.09344 0 0
9:35 am 09:35 Sunny 60 15.8 53 11.6 76 76 SSE 7 11 30.15 1021 10 16.09344 0 0
9:55 am 09:55 Sunny 62 16.4 53 11.8 74 74 SSE 6 9 30.15 1021 10 16.09344 0 0
10:15 am 10:15 Sunny 62 16.8 52 11.3 70 70 S 5 7 30.15 1021 10 16.09344 0 0
10:35 am 10:35 Sunny 64 17.5 53 11.5 68 68 SW 7 11 30.15 1021 10 16.09344 0 0
10:55 am 10:55 Sunny 64 18 52 10.9 63 63 S 7 11 30.12 1020 10 16.09344 0 0
11:15 am 11:15 Sunny 65 18.4 52 11 62 62 S 5 7 30.12 1020 10 16.09344 0 0
11:35 am 11:35 Sunny 66 19 51 10.6 58 58 S 7 11 30.12 1020 10 16.09344 0 0
11:55 am 11:55 Sunny 67 19.4 51 10.6 57 57 SSE 5 7 30.12 1020 10 16.09344 0 0
12:15 pm 12:15 Sunny 68 19.8 50 10.2 54 54 SE 7 11 30.09 1019 10 16.09344 0 0
12:35 pm 12:35 Sunny 69 20.6 51 10.5 53 53 SSE 8 13 30.09 1019 10 16.09344 0 0
12:55 pm 12:55 Sunny 69 20.6 50 9.9 50 50 SSE 7 11 30.09 1019 10 16.09344 0 0
1:15 pm 13:15 Partly Cloudy 70 21.1 52 10.9 52 52 SSE 10 17 30.03 1017 10 16.09344 0 0
1:35 pm 13:35 Partly Cloudy 70 21.3 49 9.5 47 47 S 7 11 30.03 1017 10 16.09344 0 0
1:55 pm 13:55 Sunny 71 21.7 51 10.5 49 49 SSE 9 15 30.03 1017 10 16.09344 0 0
2:15 pm 14:15 Sunny 71 21.9 50 10.1 47 47 S 6 9 30.03 1017 10 16.09344 0 0
2:35 pm 14:35 Sunny 72 22.1 50 9.8 46 46 S 9 15 30.03 1017 10 16.09344 0 0
2:55 pm 14:55 Partly Cloudy 72 22.2 50 10.1 46 46 S 8 13 30.03 1017 10 16.09344 0 0
3:15 pm 15:15 Partly Cloudy 73 22.6 51 10.8 47 47 S 10 17 30.03 1017 10 16.09344 0 0
3:35 pm 15:35 Partly Cloudy 73 22.9 51 10.3 45 45 S 10 17 30 1016 10 16.09344 0 0
3:55 pm 15:55 Mostly Cloudy 73 22.6 50 10.2 46 46 S 10 17 30 1016 10 16.09344 0 0
4:15 pm 16:15 Mostly Cloudy 73 23 51 10.5 45 45 SSE 8 13 30 1016 10 16.09344 0 0
4:35 pm 16:35 Partly Cloudy 73 23 50 10 44 44 S 12 19 30 1016 10 16.09344 0 0
4:55 pm 16:55 Mostly Cloudy 73 23 50 10.2 44 44 SSE 10 17 29.97 1015 10 16.09344 0 0
5:15 pm 17:15 Mostly Cloudy 73 23 51 10.3 45 45 S 9 15 29.97 1015 10 16.09344 0 0
5:35 pm 17:35 Cloudy 74 23.1 51 10.8 46 46 SSE 9 15 29.97 1015 10 16.09344 0 0
5:55 pm 17:55 Cloudy 73 22.6 52 11.1 48 48 SSE 10 17 29.97 1015 10 16.09344 0 0
6:15 pm 18:15 Cloudy 73 22.5 51 10.7 47 47 SSE 9 15 29.97 1015 10 16.09344 0 0
6:35 pm 18:35 Cloudy 72 22 52 11.2 50 50 SE 9 15 29.94 1014 10 16.09344 0 0
6:55 pm 18:55 Cloudy 71 21.7 52 11.1 51 51 SE 9 15 29.94 1014 10 16.09344 0 0
7:15 pm 19:15 Cloudy 71 21.5 53 11.7 54 54 SE 8 13 29.94 1014 10 16.09344 0 0
7:35 pm 19:35 Cloudy 70 21.3 52 11.3 53 53 SE 8 13 29.94 1014 10 16.09344 0 0
7:55 pm 19:55 Mostly Cloudy 70 20.9 54 12 57 57 ESE 9 15 29.94 1014 10 16.09344 0 0
8:15 pm 20:15 Partly Cloudy 68 20 53 11.6 59 59 ESE 8 13 29.94 1014 10 16.09344 0 0
8:35 pm 20:35 Sunny 66 19 53 11.9 64 64 ESE 9 15 29.97 1015 10 16.09344 0 0
8:55 pm 20:55 Clear 65 18.2 53 11.4 65 65 ESE 8 13 29.94 1014 10 16.09344 0 0
9:15 pm 21:15 Clear 64 17.5 52 11.2 67 67 SE 8 13 29.94 1014 10 16.09344 0 0
9:35 pm 21:35 Clear 63 17 52 11 68 68 SE 7 11 29.97 1015 10 16.09344 0 0
9:55 pm 21:55 Partly Cloudy 62 16.5 52 11 70 70 SE 8 13 29.97 1015 10 16.09344 0 0
10:15 pm 22:15 Partly Cloudy 62 16.5 51 10.5 68 68 SE 9 15 29.94 1014 10 16.09344 0 0
10:35 pm 22:35 Partly Cloudy 61 16.2 51 10.3 68 68 ESE 8 13 29.94 1014 10 16.09344 0 0
10:55 pm 22:55 Partly Cloudy 60 15.8 51 10.7 72 72 ESE 7 11 29.97 1015 10 16.09344 0 0
11:15 pm 23:15 Partly Cloudy 60 15.5 52 11.2 76 76 ESE 8 13 29.97 1015 10 16.09344 0 0
11:35 pm 23:35 Mostly Cloudy 60 15.7 52 11 74 74 ESE 7 11 29.97 1015 10 16.09344 0 0
11:55 pm 23:55 Cloudy 62 16.5 51 10.5 68 68 SE 8 13 29.94 1014 10 16.09344 0 0

Powered by AerisWeather